Time,TemperatureF,DewpointF,PressureIn,WindDirection,WindDirectionDegrees,WindSpeedMPH,WindSpeedGustMPH,Humidity,HourlyPrecipIn,Conditions,Clouds,dailyrainin,SolarRadiationWatts/m^2,SoftwareType,DateUTC
2013-07-24 00:01:00,68.4,61.2,29.66,WNW,298,6.0,6.0,78,0.00,,,0.00,0,WxPro DR1,2013-07-24 04:01:00,
2013-07-24 00:06:00,68.3,60.9,29.66,WNW,301,1.0,12.0,77,0.00,,,0.00,0,WxPro DR1,2013-07-24 04:06:00,
2013-07-24 00:11:00,68.2,60.9,29.66,NW,304,1.0,12.0,77,0.00,,,0.00,0,WxPro DR1,2013-07-24 04:11:00,
2013-07-24 00:16:00,68.2,60.9,29.66,WNW,288,3.0,9.0,78,0.00,,,0.00,0,WxPro DR1,2013-07-24 04:16:00,
2013-07-24 00:21:00,68.1,61.0,29.67,West,279,1.0,5.0,78,0.00,,,0.00,0,WxPro DR1,2013-07-24 04:21:00,
2013-07-24 00:26:00,68.1,61.0,29.67,West,275,0.0,5.0,78,0.00,,,0.00,0,WxPro DR1,2013-07-24 04:26:00,
2013-07-24 00:31:00,68.0,61.2,29.66,West,272,0.0,5.0,79,0.00,,,0.00,0,WxPro DR1,2013-07-24 04:31:00,
2013-07-24 00:36:00,67.9,61.5,29.67,WSW,257,0.0,5.0,80,0.00,,,0.00,0,WxPro DR1,2013-07-24 04:36:00,
2013-07-24 00:41:00,67.8,61.4,29.67,WSW,246,0.0,5.0,80,0.00,,,0.00,0,WxPro DR1,2013-07-24 04:41:00,
2013-07-24 00:46:00,67.6,61.2,29.67,WSW,249,0.0,5.0,80,0.00,,,0.00,0,WxPro DR1,2013-07-24 04:46:00,
2013-07-24 00:51:00,67.4,61.4,29.67,WSW,250,0.0,4.0,81,0.00,,,0.00,0,WxPro DR1,2013-07-24 04:51:00,
2013-07-24 00:56:00,67.3,61.3,29.67,WSW,252,3.0,6.0,81,0.00,,,0.00,0,WxPro DR1,2013-07-24 04:56:00,
2013-07-24 01:01:00,67.2,61.3,29.66,WSW,255,2.0,6.0,81,0.00,,,0.00,0,WxPro DR1,2013-07-24 05:01:00,
2013-07-24 01:06:00,67.1,61.1,29.66,West,277,2.0,9.0,81,0.00,,,0.00,0,WxPro DR1,2013-07-24 05:06:00,
2013-07-24 01:11:00,67.1,61.1,29.66,WNW,284,1.0,9.0,81,0.00,,,0.00,0,WxPro DR1,2013-07-24 05:11:00,
2013-07-24 01:16:00,67.0,61.0,29.66,NW,306,1.0,7.0,81,0.00,,,0.00,0,WxPro DR1,2013-07-24 05:16:00,
2013-07-24 01:21:00,67.0,60.6,29.66,NW,306,1.0,10.0,80,0.00,,,0.00,0,WxPro DR1,2013-07-24 05:21:00,
2013-07-24 01:26:00,67.0,60.8,29.67,West,270,2.0,10.0,81,0.00,,,0.00,0,WxPro DR1,2013-07-24 05:26:00,
2013-07-24 01:31:00,66.9,60.9,29.67,SW,223,3.0,11.0,81,0.00,,,0.00,0,WxPro DR1,2013-07-24 05:31:00,
2013-07-24 01:36:00,66.8,60.8,29.67,WSW,257,2.0,11.0,81,0.00,,,0.00,0,WxPro DR1,2013-07-24 05:36:00,
2013-07-24 01:41:00,66.7,60.3,29.67,West,269,1.0,9.0,80,0.00,,,0.00,0,WxPro DR1,2013-07-24 05:41:00,
2013-07-24 01:46:00,66.6,60.2,29.67,WSW,244,6.0,6.0,80,0.00,,,0.00,0,WxPro DR1,2013-07-24 05:46:00,
2013-07-24 01:51:00,66.5,59.4,29.67,WSW,244,0.0,7.0,78,0.00,,,0.00,0,WxPro DR1,2013-07-24 05:51:00,
2013-07-24 01:56:00,66.4,59.3,29.67,WSW,248,3.0,7.0,78,0.00,,,0.00,0,WxPro DR1,2013-07-24 05:56:00,
2013-07-24 02:01:00,66.4,59.7,29.67,West,280,0.0,6.0,79,0.00,,,0.00,0,WxPro DR1,2013-07-24 06:01:00,
2013-07-24 02:06:00,66.3,59.9,29.67,WSW,247,6.0,6.0,80,0.00,,,0.00,0,WxPro DR1,2013-07-24 06:06:00,
2013-07-24 02:11:00,66.1,60.1,29.67,West,263,4.0,7.0,81,0.00,,,0.00,0,WxPro DR1,2013-07-24 06:11:00,
2013-07-24 02:16:00,66.0,60.3,29.67,NW,312,1.0,9.0,82,0.00,,,0.00,0,WxPro DR1,2013-07-24 06:16:00,
2013-07-24 02:21:00,65.8,60.5,29.68,WNW,292,0.0,9.0,83,0.00,,,0.00,0,WxPro DR1,2013-07-24 06:21:00,
2013-07-24 02:26:00,65.7,60.4,29.68,WNW,285,1.0,5.0,83,0.00,,,0.00,0,WxPro DR1,2013-07-24 06:26:00,
2013-07-24 02:31:00,65.7,60.0,29.68,South,185,0.0,6.0,82,0.00,,,0.00,0,WxPro DR1,2013-07-24 06:31:00,
2013-07-24 02:36:00,65.5,59.8,29.68,West,280,1.0,13.0,82,0.00,,,0.00,0,WxPro DR1,2013-07-24 06:36:00,
2013-07-24 02:41:00,65.4,59.7,29.69,West,266,0.0,13.0,82,0.00,,,0.00,0,WxPro DR1,2013-07-24 06:41:00,
2013-07-24 02:46:00,65.2,59.6,29.69,West,261,1.0,7.0,82,0.00,,,0.00,0,WxPro DR1,2013-07-24 06:46:00,
2013-07-24 02:51:00,65.1,59.5,29.69,WSW,246,1.0,7.0,82,0.00,,,0.00,0,WxPro DR1,2013-07-24 06:51:00,
2013-07-24 02:56:00,65.0,59.4,29.69,NW,307,2.0,11.0,82,0.00,,,0.00,0,WxPro DR1,2013-07-24 06:56:00,
2013-07-24 03:01:00,64.9,59.2,29.69,WSW,244,0.0,11.0,82,0.00,,,0.00,0,WxPro DR1,2013-07-24 07:01:00,
2013-07-24 03:07:00,64.8,59.1,29.69,NW,319,5.0,9.0,82,0.00,,,0.00,0,WxPro DR1,2013-07-24 07:07:00,
2013-07-24 03:12:00,64.7,59.4,29.70,West,279,1.0,9.0,83,0.00,,,0.00,0,WxPro DR1,2013-07-24 07:12:00,
2013-07-24 03:17:00,64.6,59.3,29.70,NNW,336,1.0,9.0,83,0.00,,,0.00,0,WxPro DR1,2013-07-24 07:17:00,
2013-07-24 03:22:00,64.4,59.2,29.70,WSW,254,0.0,9.0,83,0.00,,,0.00,0,WxPro DR1,2013-07-24 07:22:00,
2013-07-24 03:27:00,64.3,59.3,29.70,WSW,254,0.0,9.0,84,0.00,,,0.00,0,WxPro DR1,2013-07-24 07:27:00,
2013-07-24 03:32:00,64.2,59.3,29.70,WSW,257,0.0,8.0,84,0.00,,,0.00,0,WxPro DR1,2013-07-24 07:32:00,
2013-07-24 03:37:00,64.1,59.2,29.70,WSW,245,0.0,11.0,84,0.00,,,0.00,0,WxPro DR1,2013-07-24 07:37:00,
2013-07-24 03:42:00,64.0,59.1,29.70,SSW,196,0.0,11.0,84,0.00,,,0.00,0,WxPro DR1,2013-07-24 07:42:00,
2013-07-24 03:47:00,63.9,59.0,29.70,WSW,249,0.0,9.0,84,0.00,,,0.00,0,WxPro DR1,2013-07-24 07:47:00,
2013-07-24 03:52:00,63.9,59.3,29.70,West,260,4.0,11.0,85,0.00,,,0.00,0,WxPro DR1,2013-07-24 07:52:00,
2013-07-24 03:57:00,63.9,59.3,29.70,WSW,248,0.0,11.0,85,0.00,,,0.00,0,WxPro DR1,2013-07-24 07:57:00,
2013-07-24 04:02:00,63.9,59.3,29.70,WSW,238,0.0,12.0,85,0.00,,,0.00,0,WxPro DR1,2013-07-24 08:02:00,
2013-07-24 04:07:00,63.8,59.2,29.70,WNW,302,4.0,12.0,85,0.00,,,0.00,0,WxPro DR1,2013-07-24 08:07:00,
2013-07-24 04:12:00,63.7,59.1,29.70,WNW,299,0.0,10.0,85,0.00,,,0.00,0,WxPro DR1,2013-07-24 08:12:00,
2013-07-24 04:17:00,63.6,59.3,29.70,WSW,246,1.0,7.0,86,0.00,,,0.00,0,WxPro DR1,2013-07-24 08:17:00,
2013-07-24 04:22:00,63.6,59.3,29.70,West,262,1.0,7.0,86,0.00,,,0.00,0,WxPro DR1,2013-07-24 08:22:00,
2013-07-24 04:27:00,63.6,59.3,29.70,West,268,2.0,12.0,86,0.00,,,0.00,0,WxPro DR1,2013-07-24 08:27:00,
2013-07-24 04:32:00,63.5,59.2,29.70,West,271,4.0,12.0,86,0.00,,,0.00,0,WxPro DR1,2013-07-24 08:32:00,
2013-07-24 04:37:00,63.4,59.4,29.71,SSW,210,0.0,10.0,87,0.00,,,0.00,0,WxPro DR1,2013-07-24 08:37:00,
2013-07-24 04:42:00,63.3,59.3,29.71,West,275,0.0,10.0,87,0.00,,,0.00,0,WxPro DR1,2013-07-24 08:42:00,
2013-07-24 04:47:00,63.2,59.3,29.71,SW,217,2.0,9.0,87,0.00,,,0.00,0,WxPro DR1,2013-07-24 08:47:00,
2013-07-24 04:52:00,63.2,59.3,29.71,WNW,288,3.0,7.0,87,0.00,,,0.00,0,WxPro DR1,2013-07-24 08:52:00,
2013-07-24 04:57:00,63.1,59.5,29.71,West,269,2.0,9.0,88,0.00,,,0.00,0,WxPro DR1,2013-07-24 08:57:00,
2013-07-24 05:02:00,63.0,59.4,29.72,WNW,300,0.0,9.0,88,0.00,,,0.00,0,WxPro DR1,2013-07-24 09:02:00,
2013-07-24 05:07:00,63.0,59.4,29.72,SW,229,3.0,9.0,88,0.00,,,0.00,0,WxPro DR1,2013-07-24 09:07:00,
2013-07-24 05:12:00,63.0,59.5,29.72,SW,236,3.0,9.0,88,0.00,,,0.00,0,WxPro DR1,2013-07-24 09:12:00,
2013-07-24 05:17:00,63.0,59.4,29.72,WNW,302,1.0,7.0,88,0.00,,,0.00,0,WxPro DR1,2013-07-24 09:17:00,
2013-07-24 05:22:00,62.9,59.3,29.72,NW,325,2.0,7.0,88,0.00,,,0.00,0,WxPro DR1,2013-07-24 09:22:00,
2013-07-24 05:27:00,62.9,58.6,29.72,West,269,3.0,9.0,86,0.00,,,0.00,0,WxPro DR1,2013-07-24 09:27:00,
2013-07-24 05:32:00,63.0,58.2,29.73,NW,305,5.0,10.0,84,0.00,,,0.00,0,WxPro DR1,2013-07-24 09:32:00,
2013-07-24 05:37:00,63.1,57.8,29.73,NW,319,0.0,10.0,83,0.00,,,0.00,0,WxPro DR1,2013-07-24 09:37:00,
2013-07-24 05:42:00,63.1,57.2,29.73,North,351,2.0,10.0,81,0.00,,,0.00,0,WxPro DR1,2013-07-24 09:42:00,
2013-07-24 05:47:00,63.0,56.1,29.73,NW,314,13.0,13.0,78,0.00,,,0.00,0,WxPro DR1,2013-07-24 09:47:00,
2013-07-24 05:52:00,63.0,55.7,29.74,NW,308,1.0,13.0,77,0.00,,,0.00,0,WxPro DR1,2013-07-24 09:52:00,
2013-07-24 05:57:00,63.0,55.7,29.74,NNW,330,2.0,13.0,77,0.00,,,0.00,0,WxPro DR1,2013-07-24 09:57:00,
2013-07-24 06:02:00,63.0,55.6,29.74,North,10,0.0,10.0,77,0.00,,,0.00,0,WxPro DR1,2013-07-24 10:02:00,
2013-07-24 06:07:00,62.9,55.8,29.74,WNW,296,3.0,10.0,77,0.00,,,0.00,0,WxPro DR1,2013-07-24 10:07:00,
2013-07-24 06:12:00,62.8,55.5,29.74,North,1,7.0,10.0,77,0.00,,,0.00,5,WxPro DR1,2013-07-24 10:12:00,
2013-07-24 06:17:00,62.7,55.0,29.75,North,351,0.0,10.0,76,0.00,,,0.00,7,WxPro DR1,2013-07-24 10:17:00,
2013-07-24 06:22:00,62.5,54.8,29.75,NW,309,3.0,12.0,76,0.00,,,0.00,9,WxPro DR1,2013-07-24 10:22:00,
2013-07-24 06:27:00,62.2,54.5,29.76,West,279,4.0,14.0,76,0.00,,,0.00,11,WxPro DR1,2013-07-24 10:27:00,
2013-07-24 06:32:00,61.9,54.2,29.76,NNW,330,4.0,17.0,76,0.00,,,0.00,12,WxPro DR1,2013-07-24 10:32:00,
2013-07-24 06:37:00,61.7,54.4,29.76,NW,306,4.0,17.0,77,0.00,,,0.00,14,WxPro DR1,2013-07-24 10:37:00,
2013-07-24 06:42:00,61.5,54.2,29.76,North,5,6.0,16.0,77,0.00,,,0.00,18,WxPro DR1,2013-07-24 10:42:00,
2013-07-24 06:47:00,61.2,54.0,29.77,NNW,329,12.0,16.0,77,0.00,,,0.00,21,WxPro DR1,2013-07-24 10:47:00,
2013-07-24 06:52:00,61.0,54.0,29.77,WSW,258,9.0,17.0,78,0.00,,,0.00,23,WxPro DR1,2013-07-24 10:52:00,
2013-07-24 06:57:00,60.8,54.0,29.77,NW,313,5.0,17.0,78,0.00,,,0.00,32,WxPro DR1,2013-07-24 10:57:00,
2013-07-24 07:02:00,60.8,53.8,29.77,NNW,341,4.0,15.0,78,0.00,,,0.00,42,WxPro DR1,2013-07-24 11:02:00,
2013-07-24 07:07:00,60.6,53.4,29.78,WNW,288,4.0,15.0,77,0.00,,,0.00,56,WxPro DR1,2013-07-24 11:07:00,
2013-07-24 07:12:00,60.4,53.2,29.78,WNW,297,6.0,14.0,77,0.00,,,0.00,72,WxPro DR1,2013-07-24 11:12:00,
2013-07-24 07:17:00,60.2,52.6,29.78,NNE,24,10.0,16.0,76,0.00,,,0.00,60,WxPro DR1,2013-07-24 11:17:00,
2013-07-24 07:22:00,60.0,52.6,29.79,WNW,302,10.0,16.0,76,0.00,,,0.00,90,WxPro DR1,2013-07-24 11:22:00,
2013-07-24 07:27:00,60.0,52.4,29.79,WNW,298,2.0,16.0,76,0.00,,,0.00,95,WxPro DR1,2013-07-24 11:27:00,
2013-07-24 07:32:00,60.1,52.4,29.79,WNW,282,4.0,17.0,76,0.00,,,0.00,118,WxPro DR1,2013-07-24 11:32:00,
2013-07-24 07:37:00,60.0,52.4,29.79,WNW,283,3.0,17.0,76,0.00,,,0.00,100,WxPro DR1,2013-07-24 11:37:00,
2013-07-24 07:42:00,59.9,52.6,29.80,WNW,289,3.0,12.0,77,0.00,,,0.00,163,WxPro DR1,2013-07-24 11:42:00,
2013-07-24 07:47:00,59.9,52.3,29.80,North,351,10.0,12.0,76,0.00,,,0.00,95,WxPro DR1,2013-07-24 11:47:00,
2013-07-24 07:52:00,59.8,52.3,29.81,West,263,6.0,10.0,76,0.00,,,0.00,95,WxPro DR1,2013-07-24 11:52:00,
2013-07-24 07:57:00,59.6,52.4,29.81,NW,325,0.0,10.0,77,0.00,,,0.00,97,WxPro DR1,2013-07-24 11:57:00,
2013-07-24 08:02:00,59.7,52.7,29.81,ENE,75,0.0,9.0,78,0.00,,,0.00,204,WxPro DR1,2013-07-24 12:02:00,
2013-07-24 08:07:00,59.9,52.7,29.81,North,11,10.0,13.0,77,0.00,,,0.00,155,WxPro DR1,2013-07-24 12:07:00,
2013-07-24 08:12:00,60.3,52.7,29.82,WSW,248,2.0,13.0,76,0.00,,,0.00,269,WxPro DR1,2013-07-24 12:12:00,
2013-07-24 08:17:00,60.3,52.4,29.82,NNW,341,2.0,16.0,75,0.00,,,0.00,107,WxPro DR1,2013-07-24 12:17:00,
2013-07-24 08:22:00,60.4,52.8,29.82,NNW,345,3.0,16.0,76,0.00,,,0.00,418,WxPro DR1,2013-07-24 12:22:00,
2013-07-24 08:27:00,61.0,52.6,29.82,NW,322,1.0,14.0,74,0.00,,,0.00,431,WxPro DR1,2013-07-24 12:27:00,
2013-07-24 08:32:00,61.2,52.8,29.83,NNE,16,9.0,15.0,74,0.00,,,0.00,476,WxPro DR1,2013-07-24 12:32:00,
2013-07-24 08:37:00,61.3,52.6,29.83,NNE,20,10.0,15.0,73,0.00,,,0.00,234,WxPro DR1,2013-07-24 12:37:00,
2013-07-24 08:42:00,61.3,52.5,29.83,WNW,295,4.0,14.0,73,0.00,,,0.00,206,WxPro DR1,2013-07-24 12:42:00,
2013-07-24 08:47:00,61.0,52.6,29.84,NW,320,5.0,13.0,74,0.00,,,0.00,213,WxPro DR1,2013-07-24 12:47:00,
2013-07-24 08:52:00,60.5,52.5,29.84,NW,314,3.0,13.0,75,0.00,,,0.00,241,WxPro DR1,2013-07-24 12:52:00,
2013-07-24 08:57:00,60.3,52.7,29.84,WNW,294,5.0,12.0,76,0.00,,,0.00,278,WxPro DR1,2013-07-24 12:57:00,
2013-07-24 09:02:00,60.3,52.4,29.85,WNW,295,4.0,12.0,75,0.00,,,0.00,241,WxPro DR1,2013-07-24 13:02:00,
2013-07-24 09:07:00,60.5,52.5,29.84,NE,34,4.0,12.0,75,0.00,,,0.00,747,WxPro DR1,2013-07-24 13:07:00,
2013-07-24 09:12:00,61.2,53.2,29.84,NNW,332,1.0,12.0,75,0.00,,,0.00,432,WxPro DR1,2013-07-24 13:12:00,
2013-07-24 09:17:00,61.9,53.1,29.85,WNW,284,5.0,14.0,73,0.00,,,0.00,253,WxPro DR1,2013-07-24 13:17:00,
2013-07-24 09:22:00,61.5,53.1,29.85,West,268,5.0,14.0,74,0.00,,,0.00,243,WxPro DR1,2013-07-24 13:22:00,
2013-07-24 09:27:00,60.8,53.1,29.85,NNW,337,0.0,12.0,76,0.00,,,0.00,181,WxPro DR1,2013-07-24 13:27:00,
2013-07-24 09:32:00,60.7,52.7,29.85,West,263,6.0,11.0,75,0.00,,,0.00,230,WxPro DR1,2013-07-24 13:32:00,
2013-07-24 09:37:00,60.4,52.8,29.86,SSW,207,0.0,11.0,76,0.00,,,0.00,297,WxPro DR1,2013-07-24 13:37:00,
2013-07-24 09:42:00,60.4,52.8,29.86,WNW,297,2.0,10.0,76,0.00,,,0.00,248,WxPro DR1,2013-07-24 13:42:00,
2013-07-24 09:47:00,60.7,52.7,29.86,NW,306,4.0,11.0,75,0.00,,,0.00,304,WxPro DR1,2013-07-24 13:47:00,
2013-07-24 09:52:00,61.0,52.2,29.86,NNE,13,1.0,12.0,73,0.00,,,0.00,445,WxPro DR1,2013-07-24 13:52:00,
2013-07-24 09:57:00,61.1,52.7,29.86,NNW,329,3.0,12.0,74,0.00,,,0.00,983,WxPro DR1,2013-07-24 13:57:00,
2013-07-24 10:02:00,61.6,52.6,29.87,NW,324,0.0,16.0,72,0.00,,,0.00,408,WxPro DR1,2013-07-24 14:02:00,
2013-07-24 10:07:00,61.7,53.0,29.87,NW,307,3.0,16.0,73,0.00,,,0.00,411,WxPro DR1,2013-07-24 14:07:00,
2013-07-24 10:12:00,61.5,53.0,29.87,West,271,4.0,12.0,73,0.00,,,0.00,381,WxPro DR1,2013-07-24 14:12:00,
2013-07-24 10:17:00,61.7,53.0,29.88,NW,318,1.0,9.0,73,0.00,,,0.00,367,WxPro DR1,2013-07-24 14:17:00,
2013-07-24 10:22:00,61.9,52.8,29.88,NNW,332,5.0,12.0,72,0.00,,,0.00,388,WxPro DR1,2013-07-24 14:22:00,
2013-07-24 10:27:00,61.8,53.0,29.88,WSW,256,4.0,12.0,73,0.00,,,0.00,357,WxPro DR1,2013-07-24 14:27:00,
2013-07-24 10:32:00,61.4,53.0,29.88,West,265,6.0,12.0,74,0.00,,,0.00,385,WxPro DR1,2013-07-24 14:32:00,
2013-07-24 10:37:00,61.1,52.8,29.89,WSW,238,2.0,12.0,74,0.00,,,0.00,287,WxPro DR1,2013-07-24 14:37:00,
2013-07-24 10:42:00,61.1,52.5,29.89,NNW,344,0.0,11.0,73,0.00,,,0.00,288,WxPro DR1,2013-07-24 14:42:00,
2013-07-24 10:47:00,61.1,52.6,29.89,NW,326,5.0,11.0,73,0.00,,,0.00,388,WxPro DR1,2013-07-24 14:47:00,
2013-07-24 10:52:00,61.2,52.9,29.89,NNW,340,4.0,11.0,74,0.00,,,0.00,334,WxPro DR1,2013-07-24 14:52:00,
2013-07-24 10:57:00,61.6,53.1,29.90,NNW,335,3.0,10.0,74,0.00,,,0.00,436,WxPro DR1,2013-07-24 14:57:00,
2013-07-24 11:02:00,62.0,53.2,29.90,NW,322,5.0,10.0,73,0.00,,,0.00,304,WxPro DR1,2013-07-24 15:02:00,
2013-07-24 11:07:00,61.8,53.0,29.90,West,266,5.0,10.0,73,0.00,,,0.00,258,WxPro DR1,2013-07-24 15:07:00,
2013-07-24 11:12:00,61.4,52.7,29.90,NW,320,1.0,10.0,73,0.00,,,0.00,367,WxPro DR1,2013-07-24 15:12:00,
2013-07-24 11:17:00,61.3,53.0,29.90,West,280,5.0,10.0,74,0.00,,,0.00,415,WxPro DR1,2013-07-24 15:17:00,
2013-07-24 11:22:00,61.5,52.9,29.90,NW,314,5.0,11.0,73,0.00,,,0.00,519,WxPro DR1,2013-07-24 15:22:00,
2013-07-24 11:27:00,61.7,52.9,29.90,NW,318,1.0,13.0,73,0.00,,,0.00,513,WxPro DR1,2013-07-24 15:27:00,
2013-07-24 11:32:00,61.8,53.1,29.90,NW,315,5.0,13.0,73,0.00,,,0.00,527,WxPro DR1,2013-07-24 15:32:00,
2013-07-24 11:37:00,62.2,53.4,29.91,North,6,4.0,11.0,73,0.00,,,0.00,380,WxPro DR1,2013-07-24 15:37:00,
2013-07-24 11:42:00,62.1,53.7,29.91,NW,310,5.0,12.0,74,0.00,,,0.00,325,WxPro DR1,2013-07-24 15:42:00,
2013-07-24 11:47:00,62.0,53.6,29.91,WNW,284,4.0,12.0,74,0.00,,,0.00,362,WxPro DR1,2013-07-24 15:47:00,
2013-07-24 11:52:00,62.0,53.5,29.92,WNW,294,5.0,7.0,74,0.00,,,0.00,464,WxPro DR1,2013-07-24 15:52:00,
2013-07-24 11:57:00,62.0,53.3,29.92,North,351,1.0,9.0,73,0.00,,,0.00,517,WxPro DR1,2013-07-24 15:57:00,
2013-07-24 12:02:00,62.4,53.2,29.92,West,275,8.0,10.0,72,0.00,,,0.00,487,WxPro DR1,2013-07-24 16:02:00,
2013-07-24 12:07:00,62.5,53.0,29.92,WNW,283,5.0,10.0,71,0.00,,,0.00,480,WxPro DR1,2013-07-24 16:07:00,
2013-07-24 12:12:00,62.4,52.9,29.92,WSW,240,6.0,12.0,71,0.00,,,0.00,420,WxPro DR1,2013-07-24 16:12:00,
2013-07-24 12:17:00,62.2,53.4,29.92,WNW,286,5.0,12.0,73,0.00,,,0.00,359,WxPro DR1,2013-07-24 16:17:00,
2013-07-24 12:22:00,62.5,53.0,29.93,WNW,294,3.0,11.0,71,0.00,,,0.00,332,WxPro DR1,2013-07-24 16:22:00,
2013-07-24 12:27:00,62.2,53.4,29.93,West,275,9.0,11.0,73,0.00,,,0.00,404,WxPro DR1,2013-07-24 16:27:00,
2013-07-24 12:32:00,62.6,53.7,29.93,WNW,291,3.0,9.0,73,0.00,,,0.00,1225,WxPro DR1,2013-07-24 16:32:00,
2013-07-24 12:37:00,63.8,53.8,29.93,West,277,3.0,12.0,70,0.00,,,0.00,1095,WxPro DR1,2013-07-24 16:37:00,
2013-07-24 12:42:00,63.9,53.9,29.93,WNW,289,4.0,12.0,70,0.00,,,0.00,403,WxPro DR1,2013-07-24 16:42:00,
2013-07-24 12:47:00,63.7,54.0,29.93,West,269,5.0,11.0,71,0.00,,,0.00,403,WxPro DR1,2013-07-24 16:47:00,
2013-07-24 12:52:00,63.8,53.5,29.93,SW,229,4.0,12.0,69,0.00,,,0.00,478,WxPro DR1,2013-07-24 16:52:00,
2013-07-24 12:57:00,63.7,53.4,29.93,NNE,29,1.0,12.0,69,0.00,,,0.00,373,WxPro DR1,2013-07-24 16:57:00,
2013-07-24 13:02:00,64.0,52.9,29.93,West,273,4.0,7.0,67,0.00,,,0.00,1318,WxPro DR1,2013-07-24 17:02:00,
2013-07-24 13:07:00,64.8,53.6,29.93,WNW,300,4.0,9.0,67,0.00,,,0.00,1005,WxPro DR1,2013-07-24 17:07:00,
2013-07-24 13:12:00,64.9,52.8,29.93,WNW,288,3.0,10.0,65,0.00,,,0.00,455,WxPro DR1,2013-07-24 17:12:00,
2013-07-24 13:17:00,64.1,52.5,29.93,NW,323,3.0,10.0,66,0.00,,,0.00,325,WxPro DR1,2013-07-24 17:17:00,
2013-07-24 13:22:00,64.1,52.8,29.93,West,279,2.0,6.0,67,0.00,,,0.00,313,WxPro DR1,2013-07-24 17:22:00,
2013-07-24 13:27:00,64.2,52.6,29.93,West,260,4.0,10.0,66,0.00,,,0.00,1281,WxPro DR1,2013-07-24 17:27:00,
2013-07-24 13:32:00,64.3,52.7,29.93,West,263,2.0,10.0,66,0.00,,,0.00,527,WxPro DR1,2013-07-24 17:32:00,
2013-07-24 13:37:00,64.4,52.7,29.93,NNE,28,3.0,9.0,66,0.00,,,0.00,406,WxPro DR1,2013-07-24 17:37:00,
2013-07-24 13:42:00,64.2,52.6,29.93,WNW,302,0.0,12.0,66,0.00,,,0.00,397,WxPro DR1,2013-07-24 17:42:00,
2013-07-24 13:47:00,64.1,52.2,29.93,WNW,291,4.0,12.0,65,0.00,,,0.00,587,WxPro DR1,2013-07-24 17:47:00,
2013-07-24 13:52:00,64.4,52.5,29.93,West,268,5.0,10.0,65,0.00,,,0.00,483,WxPro DR1,2013-07-24 17:52:00,
2013-07-24 13:57:00,65.0,53.1,29.93,WNW,299,1.0,10.0,66,0.00,,,0.00,508,WxPro DR1,2013-07-24 17:57:00,
2013-07-24 14:02:00,65.4,52.8,29.93,West,263,2.0,13.0,64,0.00,,,0.00,1132,WxPro DR1,2013-07-24 18:02:00,
2013-07-24 14:07:00,65.3,52.8,29.93,NNE,13,3.0,13.0,64,0.00,,,0.00,357,WxPro DR1,2013-07-24 18:07:00,
2013-07-24 14:12:00,65.3,53.2,29.93,West,264,9.0,10.0,65,0.00,,,0.00,369,WxPro DR1,2013-07-24 18:12:00,
2013-07-24 14:17:00,64.8,53.1,29.93,West,269,2.0,11.0,66,0.00,,,0.00,831,WxPro DR1,2013-07-24 18:17:00,
2013-07-24 14:22:00,64.9,52.8,29.93,NNW,328,2.0,11.0,65,0.00,,,0.00,1129,WxPro DR1,2013-07-24 18:22:00,
2013-07-24 14:27:00,65.2,52.9,29.92,NNW,332,2.0,10.0,64,0.00,,,0.00,1132,WxPro DR1,2013-07-24 18:27:00,
2013-07-24 14:32:00,65.8,52.6,29.92,North,356,5.0,12.0,63,0.00,,,0.00,1181,WxPro DR1,2013-07-24 18:32:00,
2013-07-24 14:37:00,65.7,53.8,29.93,West,275,5.0,12.0,65,0.00,,,0.00,406,WxPro DR1,2013-07-24 18:37:00,
2013-07-24 14:42:00,65.4,54.0,29.92,West,272,1.0,10.0,67,0.00,,,0.00,1269,WxPro DR1,2013-07-24 18:42:00,
2013-07-24 14:47:00,66.1,53.5,29.93,WSW,250,0.0,12.0,64,0.00,,,0.00,1113,WxPro DR1,2013-07-24 18:47:00,
2013-07-24 14:52:00,66.1,52.7,29.93,North,356,2.0,12.0,62,0.00,,,0.00,320,WxPro DR1,2013-07-24 18:52:00,
2013-07-24 14:57:00,65.9,52.6,29.93,WNW,299,12.0,12.0,62,0.00,,,0.00,243,WxPro DR1,2013-07-24 18:57:00,
2013-07-24 15:02:00,65.7,52.5,29.93,WNW,286,3.0,12.0,63,0.00,,,0.00,990,WxPro DR1,2013-07-24 19:02:00,
2013-07-24 15:07:00,65.9,52.7,29.93,SW,228,0.0,12.0,62,0.00,,,0.00,1002,WxPro DR1,2013-07-24 19:07:00,
2013-07-24 15:12:00,66.4,52.1,29.93,NNE,13,3.0,9.0,60,0.00,,,0.00,967,WxPro DR1,2013-07-24 19:12:00,
2013-07-24 15:17:00,66.5,51.9,29.93,NW,309,1.0,11.0,59,0.00,,,0.00,1000,WxPro DR1,2013-07-24 19:17:00,
2013-07-24 15:22:00,66.6,52.7,29.93,WNW,303,9.0,11.0,61,0.00,,,0.00,1018,WxPro DR1,2013-07-24 19:22:00,
2013-07-24 15:27:00,66.7,52.0,29.93,WNW,303,4.0,11.0,59,0.00,,,0.00,918,WxPro DR1,2013-07-24 19:27:00,
2013-07-24 15:32:00,66.6,52.7,29.93,North,5,1.0,10.0,61,0.00,,,0.00,974,WxPro DR1,2013-07-24 19:32:00,
2013-07-24 15:37:00,67.0,52.4,29.93,North,356,3.0,11.0,59,0.00,,,0.00,1074,WxPro DR1,2013-07-24 19:37:00,
2013-07-24 15:42:00,67.4,53.1,29.93,WNW,288,5.0,11.0,60,0.00,,,0.00,979,WxPro DR1,2013-07-24 19:42:00,
2013-07-24 15:47:00,67.6,53.0,29.93,NW,309,2.0,11.0,60,0.00,,,0.00,1004,WxPro DR1,2013-07-24 19:47:00,
2013-07-24 15:52:00,67.7,52.1,29.93,WNW,293,3.0,11.0,57,0.00,,,0.00,991,WxPro DR1,2013-07-24 19:52:00,
2013-07-24 15:57:00,66.8,52.0,29.93,WNW,294,0.0,11.0,59,0.00,,,0.00,262,WxPro DR1,2013-07-24 19:57:00,
2013-07-24 16:02:00,65.9,52.0,29.94,NW,318,3.0,11.0,61,0.00,,,0.00,976,WxPro DR1,2013-07-24 20:02:00,
2013-07-24 16:07:00,66.1,51.9,29.93,NW,309,0.0,12.0,60,0.00,,,0.00,967,WxPro DR1,2013-07-24 20:07:00,
2013-07-24 16:12:00,67.2,53.0,29.93,North,356,1.0,12.0,60,0.00,,,0.00,265,WxPro DR1,2013-07-24 20:12:00,
2013-07-24 16:17:00,67.9,52.8,29.94,NNW,342,7.0,13.0,59,0.00,,,0.00,399,WxPro DR1,2013-07-24 20:17:00,
2013-07-24 16:22:00,67.2,52.4,29.94,WNW,297,2.0,13.0,59,0.00,,,0.00,250,WxPro DR1,2013-07-24 20:22:00,
2013-07-24 16:27:00,66.5,52.0,29.94,North,9,4.0,8.0,60,0.00,,,0.00,904,WxPro DR1,2013-07-24 20:27:00,
2013-07-24 16:32:00,66.4,52.2,29.94,WNW,294,1.0,6.0,60,0.00,,,0.00,373,WxPro DR1,2013-07-24 20:32:00,
2013-07-24 16:37:00,67.1,51.8,29.94,WNW,282,3.0,10.0,58,0.00,,,0.00,176,WxPro DR1,2013-07-24 20:37:00,
2013-07-24 16:42:00,66.3,52.0,29.95,North,1,3.0,10.0,60,0.00,,,0.00,171,WxPro DR1,2013-07-24 20:42:00,
2013-07-24 16:47:00,65.7,51.9,29.95,NNW,341,1.0,10.0,61,0.00,,,0.00,821,WxPro DR1,2013-07-24 20:47:00,
2013-07-24 16:52:00,66.6,52.2,29.94,NW,314,3.0,7.0,60,0.00,,,0.00,237,WxPro DR1,2013-07-24 20:52:00,
2013-07-24 16:57:00,67.0,52.0,29.94,NNW,334,1.0,7.0,58,0.00,,,0.00,243,WxPro DR1,2013-07-24 20:57:00,
2013-07-24 17:02:00,66.4,52.1,29.95,NNE,24,2.0,7.0,60,0.00,,,0.00,220,WxPro DR1,2013-07-24 21:02:00,
2013-07-24 17:07:00,66.3,51.6,29.95,NNE,15,5.0,6.0,59,0.00,,,0.00,761,WxPro DR1,2013-07-24 21:07:00,
2013-07-24 17:12:00,66.4,51.7,29.95,NNW,336,1.0,6.0,59,0.00,,,0.00,274,WxPro DR1,2013-07-24 21:12:00,
2013-07-24 17:17:00,66.7,52.3,29.95,West,279,2.0,5.0,60,0.00,,,0.00,640,WxPro DR1,2013-07-24 21:17:00,
2013-07-24 17:22:00,67.0,52.7,29.95,NW,313,0.0,6.0,60,0.00,,,0.00,578,WxPro DR1,2013-07-24 21:22:00,
2013-07-24 17:27:00,67.6,52.1,29.95,NW,309,3.0,6.0,58,0.00,,,0.00,591,WxPro DR1,2013-07-24 21:27:00,
2013-07-24 17:32:00,67.9,52.6,29.95,NNW,330,3.0,11.0,58,0.00,,,0.00,570,WxPro DR1,2013-07-24 21:32:00,
2013-07-24 17:37:00,68.0,52.3,29.95,NNW,327,1.0,11.0,57,0.00,,,0.00,538,WxPro DR1,2013-07-24 21:37:00,
2013-07-24 17:42:00,68.6,53.0,29.95,NW,309,3.0,9.0,58,0.00,,,0.00,501,WxPro DR1,2013-07-24 21:42:00,
2013-07-24 17:47:00,68.8,52.0,29.95,SW,230,0.0,9.0,55,0.00,,,0.00,487,WxPro DR1,2013-07-24 21:47:00,
2013-07-24 17:52:00,68.1,51.8,29.94,WNW,288,4.0,8.0,56,0.00,,,0.00,469,WxPro DR1,2013-07-24 21:52:00,
2013-07-24 17:57:00,68.1,52.6,29.95,WSW,247,6.0,12.0,58,0.00,,,0.00,454,WxPro DR1,2013-07-24 21:57:00,
2013-07-24 18:02:00,68.2,51.9,29.94,North,5,1.0,12.0,56,0.00,,,0.00,439,WxPro DR1,2013-07-24 22:02:00,
2013-07-24 18:07:00,68.1,51.8,29.95,NW,311,2.0,10.0,56,0.00,,,0.00,424,WxPro DR1,2013-07-24 22:07:00,
2013-07-24 18:12:00,68.2,52.1,29.94,NNW,333,3.0,10.0,56,0.00,,,0.00,410,WxPro DR1,2013-07-24 22:12:00,
2013-07-24 18:17:00,68.2,51.9,29.94,NE,38,3.0,9.0,56,0.00,,,0.00,396,WxPro DR1,2013-07-24 22:17:00,
2013-07-24 18:22:00,68.2,51.9,29.95,North,1,1.0,9.0,56,0.00,,,0.00,381,WxPro DR1,2013-07-24 22:22:00,
2013-07-24 18:27:00,68.3,52.0,29.95,WNW,300,0.0,7.0,56,0.00,,,0.00,364,WxPro DR1,2013-07-24 22:27:00,
2013-07-24 18:32:00,68.1,51.8,29.95,NW,305,2.0,7.0,56,0.00,,,0.00,348,WxPro DR1,2013-07-24 22:32:00,
2013-07-24 18:37:00,68.2,51.9,29.95,NNE,15,3.0,7.0,56,0.00,,,0.00,332,WxPro DR1,2013-07-24 22:37:00,
2013-07-24 18:42:00,68.1,52.1,29.95,NNE,20,2.0,7.0,57,0.00,,,0.00,315,WxPro DR1,2013-07-24 22:42:00,
2013-07-24 18:47:00,68.1,51.8,29.95,NW,326,0.0,6.0,56,0.00,,,0.00,302,WxPro DR1,2013-07-24 22:47:00,
2013-07-24 18:52:00,68.4,52.1,29.95,North,351,1.0,5.0,56,0.00,,,0.00,287,WxPro DR1,2013-07-24 22:52:00,
2013-07-24 18:57:00,68.6,52.7,29.95,North,351,0.0,5.0,57,0.00,,,0.00,269,WxPro DR1,2013-07-24 22:57:00,
2013-07-24 19:02:00,69.0,52.7,29.95,North,351,3.0,5.0,56,0.00,,,0.00,248,WxPro DR1,2013-07-24 23:02:00,
2013-07-24 19:07:00,69.1,52.3,29.95,North,356,4.0,5.0,55,0.00,,,0.00,227,WxPro DR1,2013-07-24 23:07:00,
2013-07-24 19:12:00,68.9,52.3,29.95,NE,51,2.0,5.0,56,0.00,,,0.00,206,WxPro DR1,2013-07-24 23:12:00,
2013-07-24 19:17:00,68.4,52.6,29.95,NNE,13,1.0,6.0,57,0.00,,,0.00,185,WxPro DR1,2013-07-24 23:17:00,
2013-07-24 19:22:00,68.2,52.4,29.95,NNE,13,1.0,6.0,57,0.00,,,0.00,167,WxPro DR1,2013-07-24 23:22:00,
2013-07-24 19:27:00,68.5,52.3,29.96,NNE,13,2.0,4.0,56,0.00,,,0.00,149,WxPro DR1,2013-07-24 23:27:00,
2013-07-24 19:32:00,68.4,52.6,29.96,North,9,1.0,4.0,57,0.00,,,0.00,130,WxPro DR1,2013-07-24 23:32:00,
2013-07-24 19:37:00,68.2,52.4,29.96,North,9,0.0,3.0,57,0.00,,,0.00,111,WxPro DR1,2013-07-24 23:37:00,
2013-07-24 19:42:00,68.0,52.2,29.96,NNW,329,0.0,5.0,57,0.00,,,0.00,95,WxPro DR1,2013-07-24 23:42:00,
2013-07-24 19:47:00,67.8,52.4,29.96,NNW,330,0.0,5.0,58,0.00,,,0.00,79,WxPro DR1,2013-07-24 23:47:00,
2013-07-24 19:53:00,67.9,53.0,29.96,NNW,327,1.0,3.0,59,0.00,,,0.00,65,WxPro DR1,2013-07-24 23:53:00,
2013-07-24 19:58:00,67.7,52.4,29.96,NW,325,0.0,3.0,58,0.00,,,0.00,51,WxPro DR1,2013-07-24 23:58:00,
2013-07-24 20:03:00,67.7,52.8,29.96,NW,325,0.0,3.0,59,0.00,,,0.00,42,WxPro DR1,2013-07-25 00:03:00,
2013-07-24 20:08:00,67.6,52.3,29.96,NW,325,0.0,2.0,58,0.00,,,0.00,32,WxPro DR1,2013-07-25 00:08:00,
2013-07-24 20:13:00,67.1,54.0,29.96,NW,325,0.0,2.0,63,0.00,,,0.00,18,WxPro DR1,2013-07-25 00:13:00,
2013-07-24 20:18:00,66.3,54.2,29.96,NW,325,0.0,1.0,65,0.00,,,0.00,14,WxPro DR1,2013-07-25 00:18:00,
2013-07-24 20:23:00,65.4,54.6,29.97,NW,325,0.0,0.0,68,0.00,,,0.00,11,WxPro DR1,2013-07-25 00:23:00,
2013-07-24 20:28:00,64.5,54.5,29.97,NW,325,0.0,0.0,70,0.00,,,0.00,7,WxPro DR1,2013-07-25 00:28:00,
2013-07-24 20:33:00,63.7,54.0,29.97,NW,325,0.0,0.0,71,0.00,,,0.00,5,WxPro DR1,2013-07-25 00:33:00,
2013-07-24 20:38:00,63.0,54.0,29.97,NW,326,0.0,0.0,72,0.00,,,0.00,0,WxPro DR1,2013-07-25 00:38:00,
2013-07-24 20:43:00,62.2,53.8,29.97,NW,326,0.0,0.0,74,0.00,,,0.00,0,WxPro DR1,2013-07-25 00:43:00,
2013-07-24 20:48:00,61.6,53.5,29.97,NW,326,0.0,0.0,75,0.00,,,0.00,0,WxPro DR1,2013-07-25 00:48:00,
2013-07-24 20:53:00,61.0,53.7,29.97,NW,326,0.0,0.0,77,0.00,,,0.00,0,WxPro DR1,2013-07-25 00:53:00,
2013-07-24 20:58:00,60.5,53.8,29.98,NW,325,0.0,0.0,79,0.00,,,0.00,0,WxPro DR1,2013-07-25 00:58:00,
2013-07-24 21:03:00,60.0,53.6,29.98,NW,325,0.0,0.0,80,0.00,,,0.00,0,WxPro DR1,2013-07-25 01:03:00,
2013-07-24 21:08:00,59.3,53.8,29.98,NW,325,0.0,0.0,82,0.00,,,0.00,0,WxPro DR1,2013-07-25 01:08:00,
2013-07-24 21:13:00,59.0,53.8,29.98,NW,325,0.0,0.0,83,0.00,,,0.00,0,WxPro DR1,2013-07-25 01:13:00,
2013-07-24 21:18:00,58.6,53.4,29.98,NW,326,0.0,0.0,83,0.00,,,0.00,0,WxPro DR1,2013-07-25 01:18:00,
2013-07-24 21:23:00,58.3,53.5,29.99,NW,325,0.0,0.0,84,0.00,,,0.00,0,WxPro DR1,2013-07-25 01:23:00,
2013-07-24 21:28:00,58.0,53.5,29.99,NW,325,0.0,0.0,85,0.00,,,0.00,0,WxPro DR1,2013-07-25 01:28:00,
2013-07-24 21:33:00,57.8,53.3,29.99,NW,325,0.0,0.0,85,0.00,,,0.00,0,WxPro DR1,2013-07-25 01:33:00,
2013-07-24 21:38:00,57.6,53.4,29.99,NW,326,0.0,0.0,86,0.00,,,0.00,0,WxPro DR1,2013-07-25 01:38:00,
2013-07-24 21:43:00,57.3,53.3,29.99,NW,325,0.0,0.0,86,0.00,,,0.00,0,WxPro DR1,2013-07-25 01:43:00,
2013-07-24 21:48:00,57.1,53.2,29.99,NW,325,0.0,0.0,87,0.00,,,0.00,0,WxPro DR1,2013-07-25 01:48:00,
2013-07-24 21:53:00,56.8,53.3,30.00,NW,325,0.0,0.0,88,0.00,,,0.00,0,WxPro DR1,2013-07-25 01:53:00,
2013-07-24 21:58:00,56.5,53.0,30.00,NW,325,0.0,0.0,88,0.00,,,0.00,0,WxPro DR1,2013-07-25 01:58:00,
2013-07-24 22:03:00,56.3,53.1,30.00,NW,325,0.0,0.0,89,0.00,,,0.00,0,WxPro DR1,2013-07-25 02:03:00,
2013-07-24 22:08:00,56.1,52.9,30.00,NW,325,0.0,0.0,89,0.00,,,0.00,0,WxPro DR1,2013-07-25 02:08:00,
2013-07-24 22:13:00,55.9,53.0,30.00,NW,325,0.0,0.0,90,0.00,,,0.00,0,WxPro DR1,2013-07-25 02:13:00,
2013-07-24 22:18:00,55.8,52.9,30.00,NW,325,0.0,0.0,90,0.00,,,0.00,0,WxPro DR1,2013-07-25 02:18:00,
2013-07-24 22:23:00,55.7,52.8,30.00,NW,325,0.0,0.0,90,0.00,,,0.00,0,WxPro DR1,2013-07-25 02:23:00,
2013-07-24 22:28:00,55.5,53.0,30.00,NW,325,0.0,0.0,91,0.00,,,0.00,0,WxPro DR1,2013-07-25 02:28:00,
2013-07-24 22:33:00,55.4,52.8,30.00,NW,325,0.0,0.0,91,0.00,,,0.00,0,WxPro DR1,2013-07-25 02:33:00,
2013-07-24 22:38:00,55.2,52.6,30.00,NW,325,0.0,0.0,91,0.00,,,0.00,0,WxPro DR1,2013-07-25 02:38:00,
2013-07-24 22:43:00,55.0,52.5,30.00,NW,325,0.0,0.0,91,0.00,,,0.00,0,WxPro DR1,2013-07-25 02:43:00,
2013-07-24 22:48:00,54.8,52.2,30.01,NW,325,0.0,0.0,91,0.00,,,0.00,0,WxPro DR1,2013-07-25 02:48:00,
2013-07-24 22:53:00,54.7,52.3,30.01,NW,325,0.0,0.0,92,0.00,,,0.00,0,WxPro DR1,2013-07-25 02:53:00,
2013-07-24 22:58:00,54.5,52.2,30.01,NW,325,0.0,0.0,92,0.00,,,0.00,0,WxPro DR1,2013-07-25 02:58:00,
2013-07-24 23:03:00,54.4,52.1,30.01,NW,325,0.0,0.0,92,0.00,,,0.00,0,WxPro DR1,2013-07-25 03:03:00,
2013-07-24 23:08:00,54.3,52.0,30.01,NW,325,0.0,0.0,92,0.00,,,0.00,0,WxPro DR1,2013-07-25 03:08:00,
2013-07-24 23:13:00,54.2,52.0,30.01,NW,325,0.0,0.0,92,0.00,,,0.00,0,WxPro DR1,2013-07-25 03:13:00,
2013-07-24 23:18:00,54.2,51.9,30.01,NW,325,0.0,0.0,92,0.00,,,0.00,0,WxPro DR1,2013-07-25 03:18:00,
2013-07-24 23:23:00,54.0,51.7,30.02,NW,325,0.0,0.0,92,0.00,,,0.00,0,WxPro DR1,2013-07-25 03:23:00,
2013-07-24 23:28:00,53.9,51.6,30.02,NW,325,0.0,0.0,92,0.00,,,0.00,0,WxPro DR1,2013-07-25 03:28:00,
2013-07-24 23:33:00,53.9,51.9,30.02,NW,325,0.0,0.0,93,0.00,,,0.00,0,WxPro DR1,2013-07-25 03:33:00,
2013-07-24 23:38:00,53.8,51.8,30.02,NW,325,0.0,0.0,93,0.00,,,0.00,0,WxPro DR1,2013-07-25 03:38:00,
2013-07-24 23:43:00,53.7,51.7,30.02,NW,325,0.0,0.0,93,0.00,,,0.00,0,WxPro DR1,2013-07-25 03:43:00,
2013-07-24 23:48:00,53.6,51.7,30.03,NW,325,0.0,0.0,93,0.00,,,0.00,0,WxPro DR1,2013-07-25 03:48:00,
2013-07-24 23:53:00,53.6,51.6,30.03,NW,325,0.0,0.0,93,0.00,,,0.00,0,WxPro DR1,2013-07-25 03:53:00,
2013-07-24 23:58:00,53.5,51.5,30.03,NW,326,0.0,0.0,93,0.00,,,0.00,0,WxPro DR1,2013-07-25 03:58:00,